Station SHBL1 - 8761305 - Shell Beach, LA Image indicating link to RSS feed of recent meteorological observations for station SHBL1


Conditions at SHBL1 as of
(2:00 am CDT)
0700 GMT on 04/23/2024:
     

Click on the graph icon in the table below to see a time series plot of the last five days of that observation.

5-day plot - Wind Direction Wind Direction (WDIR):SSW ( 210 deg true )
5-day plot - Wind Speed Wind Speed (WSPD): 4.1 kts
5-day plot - Wind Gust Wind Gust (GST): 5.1 kts
5-day plot - Atmospheric Pressure Atmospheric Pressure (PRES):30.15 in
5-day plot - Pressure Tendency Pressure Tendency (PTDY):-0.02 in ( Falling )
5-day plot - Air Temperature Air Temperature (ATMP): 61.9 °F
5-day plot - Water Temperature Water Temperature (WTMP): 65.1 °F
5-day plot - Wind Speed at 10 Meters Wind Speed at 10 meters (WSPD10M): 3.9 kts
5-day plot - Wind Speed at 20 Meters Wind Speed at 20 meters (WSPD20M): 3.9 kts
5-day plot -  Wind Speed, Wind Gust and Atmospheric Pressure Combined plot of Wind Speed, Gust, and Air Pressure
NOS Water Level Observation Network Water Level
Previous observations
TIME
(CDT)
5-day plot - Wind Direction
WDIR
 
5-day plot - Wind Speed
WSPD
kts
5-day plot - Wind Gust
GST
kts
5-day plot - Wave Height
WVHT
ft
5-day plot - Dominant Wave Period
DPD
sec
5-day plot - Average Wave Period
APD
sec
5-day plot - Mean Wave Direction
MWD
 
5-day plot - Atmospheric Pressure
PRES
in
5-day plot - Pressure Tendency
PTDY
in
5-day plot - Air Temperature
ATMP
°F
5-day plot - Water Temperature
WTMP
°F
5-day plot - Dew Point
DEWP
°F
5-day plot - Salinity
SAL
psu
5-day plot - Visibility
VIS
nmi
5-day plot - Tide (above MLLW)
TIDE
ft
2024-04-23 01:54 amSSW 4.1 5.1----30.15- 61.7 65.3----
2024-04-23 01:48 amSSW 2.9 4.1----30.15- 62.1 65.3----
2024-04-23 01:42 amSSW 4.1 4.1----30.15- 61.9 65.3----
2024-04-23 01:36 am S 2.9 4.1----30.15- 61.2 65.3----
2024-04-23 01:30 amSSE 4.1 4.1----30.16- 61.2 65.3----
2024-04-23 01:24 am S 4.1 4.1----30.16- 61.3 65.3----
2024-04-23 01:18 am S 4.1 4.1----30.16- 61.3 65.3----
2024-04-23 01:12 am S 4.1 4.1----30.16- 61.5 65.5----
2024-04-23 01:06 amSSE 4.1 4.1----30.16- 61.5 65.5----
2024-04-23 01:00 amSSE 4.1 4.1----30.16-0.02 61.5 65.5----
2024-04-23 12:54 amSSE 4.1 5.1----30.16- 61.3 65.5----
2024-04-23 12:48 am S 5.1 5.1----30.16- 61.2 65.5----
2024-04-23 12:42 am S 4.1 4.1----30.17- 61.7 65.5----
2024-04-23 12:36 am S 4.1 4.1----30.17- 62.1 65.5----
2024-04-23 12:30 am S 2.9 2.9----30.16- 62.1 65.5----
2024-04-23 12:24 am S 1.9 2.9----30.16- 62.2 65.5----
2024-04-23 12:18 amSSW 1.9 2.9----30.17- 62.4 65.5----
2024-04-23 12:12 amSSW 1.9 2.9----30.17- 62.2 65.5----
2024-04-23 12:06 am S 2.9 2.9----30.17- 61.9 65.5----
2024-04-23 12:00 am S 2.9 4.1----30.16+0.00 62.4 65.5----
2024-04-22 11:54 pmSSW 4.1 5.1----30.16- 62.6 65.5----
2024-04-22 11:48 pm S 4.1 4.1----30.16- 61.9 65.5----
2024-04-22 11:42 pm S 4.1 5.1----30.16- 62.1 65.5----
2024-04-22 11:36 pm S 4.1 5.1----30.17- 62.2 65.5----
2024-04-22 11:30 pm S 4.1 4.1----30.17- 62.1 65.5----
2024-04-22 11:24 pm S 4.1 5.1----30.17- 61.9 65.5----
2024-04-22 11:18 pm S 5.1 5.1----30.17- 61.9 65.5----
2024-04-22 11:12 pm S 5.1 5.1----30.17- 61.9 65.5----
2024-04-22 11:06 pm S 5.1 5.1----30.17- 62.1 65.5----
2024-04-22 11:00 pm S 4.1 6.0----30.17+0.01 62.2 65.7----
2024-04-22 10:54 pm S 6.0 6.0----30.18- 62.4 65.7----
2024-04-22 10:48 pm S 4.1 4.1----30.17- 62.4 65.7----
2024-04-22 10:42 pmSSW 2.9 4.1----30.17- 62.4 65.7----
2024-04-22 10:36 pm S 4.1 4.1----30.17- 62.4 65.7----
2024-04-22 10:30 pm S 4.1 5.1----30.17- 62.2 65.7----
2024-04-22 10:24 pmSSW 5.1 5.1----30.18- 62.4 65.8----
2024-04-22 10:18 pm S 5.1 5.1----30.18- 62.6 65.8----
2024-04-22 10:12 pm S 4.1 5.1----30.18- 62.4 65.8----
2024-04-22 10:06 pm S 4.1 5.1----30.18- 62.2 65.8----
2024-04-22 10:00 pm S 5.1 5.1----30.18+0.03 61.9 65.8----
2024-04-22 09:54 pm S 5.1 5.1----30.18- 62.1 65.8----
2024-04-22 09:48 pm S 5.1 5.1----30.18- 61.9 65.8----
2024-04-22 09:42 pm S 4.1 5.1----30.17- 61.9 65.8----
2024-04-22 09:36 pm S 5.1 6.0----30.17- 61.7 65.8----
2024-04-22 09:30 pm S 5.1 6.0----30.17- 62.1 65.8----
2024-04-22 09:24 pm S 4.1 5.1----30.17- 61.7 65.8----
2024-04-22 09:18 pmSSE 2.9 4.1----30.16- 61.5 65.8----
2024-04-22 09:12 pm S 4.1 5.1----30.16- 61.9 65.8----
2024-04-22 09:06 pm S 5.1 5.1----30.17- 61.5 65.8----
2024-04-22 09:00 pm S 5.1 7.0----30.17+0.02 61.7 66.0----
2024-04-22 08:54 pmSSE 6.0 7.0----30.16- 61.7 66.0----
2024-04-22 08:48 pm S 7.0 7.0----30.17- 61.5 66.0----
2024-04-22 08:42 pm S 5.1 7.0----30.17- 61.3 65.8----
2024-04-22 08:36 pm S 6.0 8.0----30.17- 61.7 65.8----
2024-04-22 08:30 pm S 7.0 8.0----30.17- 61.9 65.8----
2024-04-22 08:24 pm S 6.0 7.0----30.16- 61.9 66.0----
2024-04-22 08:18 pm S 7.0 7.0----30.16-- 66.0----
2024-04-22 08:12 pmSSE 6.0 8.9----30.16-- 66.0----
2024-04-22 08:06 pm S 7.0 9.9----30.16-- 66.0----
2024-04-22 08:00 pm S 7.0 8.9----30.16+0.01 61.7 65.8----
2024-04-22 07:54 pm S 6.0 8.9----30.16- 61.7 65.7----
2024-04-22 07:48 pm S 7.0 8.0----30.15-- 65.7----
2024-04-22 07:42 pm S 7.0 8.9----30.15-- 65.8----
2024-04-22 07:36 pm S 8.0 11.1----30.15-- 66.0----
2024-04-22 07:30 pm S 7.0 8.0----30.16- 63.1 65.8----
2024-04-22 07:24 pm S 2.9 4.1----30.15- 67.1 66.0----
2024-04-22 07:18 pm--------- 67.5 65.8----
2024-04-22 07:12 pm--------- 67.8 65.8----
2024-04-22 07:06 pm--------- 68.7 65.7----
2024-04-22 07:00 pm- 0.0 1.9----30.15-0.01 70.0 65.7----
2024-04-22 06:54 pm- 0.0 2.9----30.15- 69.8 65.7----
2024-04-22 06:48 pmNNE 1.9 4.1----30.15- 68.4 65.7----
2024-04-22 06:42 pm- 0.0 1.0----30.15- 70.3 65.7----
2024-04-22 06:36 pm- 0.0 1.0----30.15- 70.0 65.7----
2024-04-22 06:30 pm- 0.0 2.9----30.15- 69.6 65.8----
2024-04-22 06:24 pmESE 1.9 2.9----30.15- 68.5 65.7----
2024-04-22 06:18 pm E 1.9 2.9----30.14- 68.5 65.5----
2024-04-22 06:12 pm NE 1.9 4.1----30.15- 69.4 65.3----
2024-04-22 06:06 pmENE 2.9 5.1----30.14- 67.8 65.1----
2024-04-22 06:00 pm E 1.9 4.1----30.15-0.04 68.9 65.1----
2024-04-22 05:54 pm NE 1.9 2.9----30.15- 69.3 64.9----
2024-04-22 05:48 pmNNW 1.0 2.9----30.14- 68.4 64.8----
2024-04-22 05:42 pm N 1.0 1.9----30.14- 68.5 64.2----
2024-04-22 05:36 pm W 1.0 4.1----30.15- 69.1 64.2----
2024-04-22 05:30 pm- 0.0 1.9----30.15- 68.2 64.2----
2024-04-22 05:24 pm- 0.0 1.9----30.14- 69.1 64.2----
2024-04-22 05:18 pm NW 1.0 1.9----30.14- 69.4 64.0----
2024-04-22 05:12 pm- 0.0 1.9----30.15- 68.4 64.0----
2024-04-22 05:06 pm- 0.0 1.0----30.15- 69.4 64.0----
2024-04-22 05:00 pm- 0.0 1.0----30.15-0.06 69.4 64.2----
2024-04-22 04:54 pm W 1.0 2.9----30.15- 67.6 64.8----
2024-04-22 04:48 pm W 2.9 4.1----30.15- 66.6 65.1----
2024-04-22 04:42 pm W 2.9 4.1----30.15- 66.0 65.5----
2024-04-22 04:36 pmWNW 4.1 4.1----30.15- 65.8 65.5----
2024-04-22 04:30 pmWNW 4.1 4.1----30.15- 65.8 65.7----
2024-04-22 04:24 pmWNW 1.9 2.9----30.16- 65.8 65.8----
2024-04-22 04:18 pmWNW 1.0 1.9----30.16- 66.4 65.7----
2024-04-22 04:12 pm W 1.0 2.9----30.16- 66.0 65.7----
2024-04-22 04:06 pm W 1.0 2.9----30.16- 66.0 65.3----
2024-04-22 04:00 pmWNW 1.9 2.9----30.16-0.06 65.3 65.3----
2024-04-22 03:54 pm W 1.9 4.1----30.16- 65.3 64.8----
2024-04-22 03:48 pmWNW 1.9 4.1----30.16- 64.9 64.8----
2024-04-22 03:42 pmWNW 1.9 4.1----30.17- 64.6 64.4----
2024-04-22 03:36 pmWNW 2.9 4.1----30.17- 64.2 64.2----
2024-04-22 03:30 pm NW 2.9 4.1----30.17- 64.0 64.0----
2024-04-22 03:24 pm W 1.0 1.9----30.17- 65.1 64.0----
2024-04-22 03:18 pm W 2.9 5.1----30.18- 64.0 64.2----
2024-04-22 03:12 pm NW 2.9 4.1----30.18- 63.7 64.2----
2024-04-22 03:06 pmWNW 2.9 4.1----30.18- 63.9 64.6----
2024-04-22 03:00 pmNNW 1.9 4.1----30.19-0.05 63.5 64.9----
2024-04-22 02:54 pm NE 1.9 5.1----30.19- 64.0 64.9----
2024-04-22 02:48 pm NE 4.1 5.1----30.19- 64.0 64.8----
2024-04-22 02:42 pmNNE 2.9 5.1----30.19- 63.1 64.8----
2024-04-22 02:36 pm N 2.9 6.0----30.19- 63.3 64.6----
2024-04-22 02:30 pmNNE 4.1 6.0----30.20- 63.0 63.9----
2024-04-22 02:24 pm N 5.1 6.0----30.20- 62.8 63.5----
2024-04-22 02:18 pmNNE 2.9 4.1----30.20- 62.6 63.3----
2024-04-22 02:12 pmNNW 2.9 6.0----30.20- 62.2 63.0----
2024-04-22 02:06 pm N 5.1 7.0----30.20- 62.1 63.0----
2024-04-22 02:00 pm N 5.1 8.0----30.21-0.03 62.1 63.0----
2024-04-22 01:54 pmNNE 6.0 8.9----30.21- 62.1 62.8----
2024-04-22 01:48 pmNNE 7.0 8.9----30.21- 61.9 62.6----
2024-04-22 01:42 pm N 5.1 8.9----30.21- 61.7 62.4----
2024-04-22 01:36 pmNNE 8.9 11.1----30.22- 61.7 62.4----
2024-04-22 01:30 pmNNE 8.0 8.9----30.22- 61.5 62.4----
2024-04-22 01:24 pm N 6.0 12.0----30.22- 61.3 62.4----
2024-04-22 01:18 pmNNE 8.9 12.0----30.22- 61.3 62.2----
2024-04-22 01:12 pm N 8.9 14.0----30.22- 61.2 62.2----
2024-04-22 01:06 pmNNE 11.1 13.0----30.22- 61.3 62.2----
2024-04-22 01:00 pmNNE 12.0 14.0----30.22-0.02 61.2 62.4----
2024-04-22 12:54 pmNNE 12.0 15.0----30.22- 61.0 62.2----
2024-04-22 12:48 pmNNE 13.0 15.0----30.22- 61.5 62.2----
2024-04-22 12:42 pmNNE 12.0 15.9----30.22- 61.2 62.2----
2024-04-22 12:36 pm N 13.0 15.9----30.22- 61.0 62.2----
2024-04-22 12:30 pm N 14.0 15.9----30.22- 60.4 62.4----
2024-04-22 12:24 pm N 12.0 18.1----30.22- 60.4 62.2----
2024-04-22 12:18 pm N 14.0 18.1----30.22- 60.4 62.1----
2024-04-22 12:12 pmNNE 14.0 17.1----30.23- 60.4 62.1----
2024-04-22 12:06 pm N 15.0 18.1----30.23- 60.3 61.9----
2024-04-22 12:00 pmNNE 14.0 19.0----30.23+0.00 60.4 61.9----
2024-04-22 11:54 amNNE 14.0 18.1----30.24- 60.3 61.9----
2024-04-22 11:48 amNNE 14.0 19.0----30.24- 60.3 61.9----
2024-04-22 11:42 amNNE 15.0 18.1----30.24- 60.3 61.9----
2024-04-22 11:36 amNNE 13.0 17.1----30.24- 60.3 61.9----
2024-04-22 11:30 amNNE 14.0 17.1----30.24- 60.1 61.9----
2024-04-22 11:24 amNNE 12.0 17.1----30.24- 59.7 62.1----
2024-04-22 11:18 amNNE 15.9 17.1----30.24- 59.5 62.1----
2024-04-22 11:12 am NE 14.0 18.1----30.24- 59.7 62.1----
2024-04-22 11:06 amNNE 15.0 20.0----30.24- 59.4 62.1----
2024-04-22 11:00 amNNE 15.0 18.1----30.24+0.02 59.5 61.9----
2024-04-22 10:54 amNNE 17.1 20.0----30.24- 59.4 61.9----
2024-04-22 10:48 am NE 18.1 21.0----30.24- 59.4 62.1----
2024-04-22 10:42 am NE 15.0 21.0----30.24- 59.4 62.1----
2024-04-22 10:36 am NE 18.1 20.0----30.24- 59.5 62.1----
2024-04-22 10:30 amNNE 15.9 25.1----30.24- 59.4 62.1----
2024-04-22 10:24 amNNE 15.9 21.0----30.24- 59.2 62.1----
2024-04-22 10:18 amNNE 18.1 21.0----30.24- 59.0 62.1----
2024-04-22 10:12 amNNE 17.1 21.0----30.24- 59.2 62.2----
2024-04-22 10:06 am NE 18.1 21.0----30.24- 59.4 62.2----
2024-04-22 10:00 amNNE 17.1 22.9----30.24+0.04 59.0 62.2----
2024-04-22 09:54 amNNE 20.0 22.9----30.24- 58.8 62.2----
2024-04-22 09:48 amNNE 21.0 22.9----30.24- 59.0 62.2----
2024-04-22 09:42 amNNE 20.0 25.1----30.24- 59.0 62.2----
2024-04-22 09:36 am NE 21.0 25.1----30.24- 58.8 62.2----
2024-04-22 09:30 am NE 19.0 24.1----30.24- 59.4 62.1----
2024-04-22 09:24 amNNE 19.0 24.1----30.24- 59.2 62.1----
2024-04-22 09:18 amNNE 21.0 25.1----30.24- 58.6 62.1----
2024-04-22 09:12 am NE 21.0 25.1----30.24- 59.0 62.1----
2024-04-22 09:06 am NE 20.0 24.1----30.23- 58.8 61.9----
2024-04-22 09:00 am NE 19.0 25.1----30.23+0.05 58.6 61.7----
2024-04-22 08:54 am NE 20.0 25.1----30.23- 58.3 61.9----
2024-04-22 08:48 amNNE 20.0 22.9----30.23- 58.1 62.6----
2024-04-22 08:42 amNNE 21.0 22.9----30.23- 57.7 62.8----
2024-04-22 08:36 am NE 21.0 25.1----30.23- 58.3 63.0----
2024-04-22 08:30 amNNE 19.0 22.9----30.23- 58.1 63.1----
2024-04-22 08:24 amNNE 19.0 22.0----30.23- 57.7 63.3----
2024-04-22 08:18 am NE 20.0 22.9----30.23- 57.6 63.3----
2024-04-22 08:12 amNNE 21.0 24.1----30.22- 57.9 63.5----
2024-04-22 08:06 am NE 20.0 24.1----30.22- 57.7 63.5----
2024-04-22 08:00 amNNE 21.0 25.1----30.22+0.06 57.7 63.5----
2024-04-22 07:54 am NE 19.0 22.9----30.22- 57.6 63.5----
2024-04-22 07:48 amNNE 21.0 24.1----30.22- 57.4 63.5----
2024-04-22 07:42 amNNE 22.9 27.0----30.22- 57.6 63.5----
2024-04-22 07:36 am NE 22.9 25.1----30.22- 57.4 63.7----
2024-04-22 07:30 am NE 22.0 25.1----30.22- 57.2 63.7----
2024-04-22 07:24 amNNE 22.9 25.1----30.21- 57.4 63.7----
2024-04-22 07:18 am NE 21.0 26.0----30.21- 57.7 63.7----
2024-04-22 07:12 am NE 22.9 27.0----30.21- 57.6 63.7----
2024-04-22 07:06 am NE 22.0 27.0----30.21- 57.7 63.9----
2024-04-22 07:00 am NE 25.1 28.0----30.20+0.05 57.4 63.9----
2024-04-22 06:54 am NE 22.0 27.0----30.20- 57.7 63.9----
2024-04-22 06:48 am NE 22.0 26.0----30.20- 57.6 63.9----
2024-04-22 06:42 am NE 22.0 25.1----30.20- 57.2 63.9----
2024-04-22 06:36 amNNE 21.0 24.1----30.19- 57.4 64.0----
2024-04-22 06:30 amNNE 19.0 25.1----30.19- 57.4 64.0----
2024-04-22 06:24 am NE 21.0 26.0----30.19- 57.6 64.0----
2024-04-22 06:18 amNNE 20.0 25.1----30.19- 57.2 64.2----
2024-04-22 06:12 amNNE 20.0 25.1----30.19- 57.2 64.2----
2024-04-22 06:06 amNNE 20.0 25.1----30.18- 57.2 64.2----
2024-04-22 06:00 amNNE 20.0 24.1----30.18+0.03 57.2 64.2----
2024-04-22 05:54 amNNE 20.0 26.0----30.18- 57.6 64.2----
2024-04-22 05:48 amNNE 20.0 25.1----30.17- 57.6 64.2----
2024-04-22 05:42 amNNE 22.0 26.0----30.17- 57.2 64.4----
2024-04-22 05:36 amNNE 21.0 25.1----30.17- 58.1 64.4----
2024-04-22 05:30 amNNE 19.0 24.1----30.17- 58.5 64.4----
2024-04-22 05:24 amNNE 20.0 25.1----30.17- 58.6 64.6----
2024-04-22 05:18 amNNE 22.0 26.0----30.17- 58.1 64.6----
2024-04-22 05:12 amNNE 22.0 25.1----30.16- 58.5 64.6----
2024-04-22 05:06 amNNE 20.0 24.1----30.16- 58.6 64.6----
2024-04-22 05:00 amNNE 22.0 25.1----30.16+0.00 58.3 64.8----
2024-04-22 04:54 amNNE 20.0 24.1----30.16- 58.6 64.8----
2024-04-22 04:48 amNNE 21.0 25.1----30.16- 58.5 64.8----
2024-04-22 04:42 amNNE 21.0 25.1----30.16- 58.5 64.8----
2024-04-22 04:36 amNNE 22.9 26.0----30.16- 58.3 64.8----
2024-04-22 04:30 amNNE 21.0 27.0----30.16- 58.8 64.9----
2024-04-22 04:24 amNNE 22.9 26.0----30.16- 58.3 64.9----
2024-04-22 04:18 amNNE 24.1 28.0----30.16- 58.6 64.9----
2024-04-22 04:12 amNNE 20.0 27.0----30.16- 59.5 64.9----
2024-04-22 04:06 amNNE 22.0 27.0----30.16- 59.0 65.1----
2024-04-22 04:00 amNNE 24.1 28.0----30.16+0.00 58.5 65.1----
2024-04-22 03:54 amNNE 22.9 27.0----30.16- 58.8 65.1----
2024-04-22 03:48 amNNE 22.9 27.0----30.16- 58.6 65.1----
2024-04-22 03:42 amNNE 22.0 28.0----30.16- 59.0 65.3----
2024-04-22 03:36 amNNE 24.1 28.0----30.16- 58.8 65.3----
2024-04-22 03:30 amNNE 25.1 28.0----30.16- 58.6 65.3----
2024-04-22 03:24 amNNE 24.1 28.0----30.16- 59.0 65.3----
2024-04-22 03:18 amNNE 24.1 28.0----30.16- 59.0 65.5----
2024-04-22 03:12 amNNE 25.1 28.0----30.16- 59.0 65.5----
2024-04-22 03:06 amNNE 22.9 28.9----30.15- 59.5 65.5----
2024-04-22 03:00 amNNE 22.9 28.0----30.15+0.00 59.5 65.5----
2024-04-22 02:54 amNNE 26.0 28.9----30.15- 59.4 65.7----
2024-04-22 02:48 amNNE 22.9 28.9----30.15- 59.9 65.7----
2024-04-22 02:42 amNNE 26.0 28.0----30.15- 59.2 65.7----
2024-04-22 02:36 am N 24.1 29.9----30.15- 60.1 65.7----
2024-04-22 02:30 amNNE 25.1 29.9----30.15- 59.5 65.8----
2024-04-22 02:24 am N 25.1 28.9----30.16- 59.7 65.8----
2024-04-22 02:18 am N 24.1 28.9----30.16- 59.9 65.8----
2024-04-22 02:12 am N 24.1 28.0----30.16- 59.9 65.8----
2024-04-22 02:06 am N 24.1 28.9----30.16- 59.9 66.0----
2024-04-22 02:00 am N 22.9 27.0----30.16+0.00 59.9 66.0----
2024-04-22 01:54 am N 22.9 27.0----30.16- 59.9 66.0----